#timestamp,LO_Frequency,Hit,StdDev 
1542618015.6,286046998.1,N
1542618035.4,286047000.7,N
1542618055.3,286046998.5,N
1542618075.1,286046999.0,N
1542618095.8,286046998.8,N
1542618115.7,286046998.8,N
1542618135.5,286047000.9,N
1542618155.4,286047000.5,N
1542618175.2,286047001.2,N
1542618195.0,286046998.5,N
1542618195.9,286046998.5,N
1542618215.8,286047001.1,N
1542618235.6,286047001.0,N
1542618255.4,286047000.5,N
1542618275.3,286047000.5,N
1542618295.1,286047000.2,N
1542618315.9,286047000.9,N
1542618335.7,286046998.4,N
1542618355.5,286046999.0,N
1542618375.4,286046998.9,N
1542618395.2,286047001.0,N
1542618415.1,286047002.4,N
1542618416.0,286047002.4,N
1542618435.8,286046999.7,N
1542618455.1,286047001.2,N
1542618475.9,286047000.6,N
1542618495.7,286047000.4,N
1542618515.6,286047000.8,N
1542618535.4,286047000.8,N
1542618555.2,286047000.9,N
1542618575.1,286047000.3,N
1542618576.0,286047000.3,N
1542618595.8,286047001.1,N
1542618615.6,286046996.7,Y
1542618635.5,286046998.0,P
1542618655.3,286046997.1,N
1542618675.2,286046998.0,N
1542618695.9,286046996.9,N
1542618715.7,286046998.4,N
1542618735.6,286046999.3,N
1542618755.4,286046998.0,N
1542618775.3,286046995.0,Y
1542618795.1,286046999.1,P
1542618796.0,286046999.1,N
1542618815.8,286046996.6,P
1542618835.7,286047000.9,N
1542618855.5,286047001.2,N
1542618875.3,286047000.9,N
1542618895.2,286047002.3,N
1542618915.0,286047001.2,N
1542618915.9,286047001.2,N
1542618935.8,286047000.7,N
1542618955.6,286047002.4,N
1542618975.4,286046999.8,N
1542618995.3,286047002.0,N
1542619015.1,286046999.7,N
1542619035.9,286047002.4,N
1542619055.7,286047000.0,N
1542619075.5,286046999.8,N
1542619095.4,286046998.6,N
1542619115.2,286046999.0,N
1542619135.0,286046996.5,N
1542619135.9,286046996.5,N
1542619155.8,286046996.6,N
1542619175.6,286046998.4,N
1542619195.5,286046999.9,N
1542619215.3,286047001.8,N
1542619235.1,286047001.5,N
1542619255.9,286047001.4,N
1542619275.7,286046999.8,N
1542619295.5,286047000.8,N
1542619315.4,286047000.8,N
1542619335.2,286046999.0,N
1542619355.1,286046998.3,N
1542619356.0,286046998.3,N
1542619375.8,286046997.4,N
1542619395.6,286046996.8,N
1542619415.5,286046997.6,N
1542619435.3,286046996.8,N
1542619455.1,286046998.6,N
1542619475.9,286046998.4,N
1542619495.7,286046998.2,N
1542619515.6,286046999.4,N
1542619535.4,286046997.3,N
1542619555.2,286046993.3,Y
1542619575.1,286046996.2,P
1542619576.0,286046996.2,N
1542619595.8,286046996.4,N
1542619615.7,286046994.0,Y
1542619635.5,286046996.5,P
1542619655.3,286046997.4,P
1542619675.2,286046998.0,P
1542619695.0,286046997.3,Y
1542619695.9,286046997.3,P
1542619715.8,286047000.8,P
1542619735.6,286047001.0,N
1542619755.4,286046998.6,N
1542619775.3,286047000.8,N
1542619795.1,286046998.4,N
1542619815.9,286046999.6,N
1542619835.7,286046996.6,N
1542619855.5,286046996.8,N
1542619875.4,286046997.4,N
1542619895.2,286046999.2,N
1542619915.1,286046996.7,N
1542619916.0,286046996.7,N
1542619935.8,286046999.2,N
1542619955.6,286046997.1,N
1542619975.5,286046996.8,N
1542619995.3,286046998.3,N
1542620015.1,286046998.6,N
1542620035.9,286046998.9,N
1542620055.7,286046996.9,N
1542620075.6,286046996.8,N
1542620095.4,286046999.6,N
1542620115.2,286046998.4,N
1542620135.1,286046997.1,N
1542620136.0,286046997.1,N
1542620155.8,286046996.9,N
1542620175.7,286046999.0,N
1542620195.5,286046998.1,N
1542620215.3,286046998.6,N
1542620235.2,286046998.8,N
1542620255.0,286046999.1,N
1542620255.9,286046999.1,N
1542620275.8,286046999.4,N
1542620295.6,286046996.9,N
1542620315.4,286046996.6,N
1542620335.3,286047001.1,N
1542620355.1,286047000.6,N
1542620375.9,286047000.7,N
1542620395.7,286047000.5,N
1542620415.5,286046999.9,N
1542620435.4,286046999.8,N
1542620455.2,286046999.7,N
1542620475.0,286047000.4,N
1542620475.9,286047000.4,N
1542620495.8,286046998.9,N
1542620515.6,286046998.2,N
1542620535.5,286046998.5,N
1542620555.3,286047000.7,N
1542620575.1,286047000.6,N
1542620595.9,286047001.2,N
1542620615.7,286046998.8,N
1542620635.6,286046998.2,N
1542620655.4,286047001.1,N
1542620675.2,286047000.9,N
1542620695.1,286047001.1,N
1542620696.0,286047001.1,N
1542620715.8,286046998.4,N
1542620735.7,286046999.4,N
1542620755.5,286046998.2,N
1542620775.3,286047000.3,N
1542620795.2,286046999.9,N
1542620815.0,286047002.4,N
1542620815.9,286047002.4,N
1542620835.8,286047002.6,N
1542620855.6,286047001.7,N
1542620875.4,286047001.6,N
1542620895.3,286047001.4,N
1542620915.1,286046999.8,N
1542620935.8,286047001.6,N
1542620955.7,286047001.7,N
1542620975.5,286047002.0,N
1542620995.3,286047001.4,N
1542621015.2,286047001.4,N
1542621035.0,286047002.9,N
1542621035.9,286047002.9,N
1542621055.8,286047002.9,N
1542621075.6,286047003.3,N
1542621095.5,286047002.9,N
1542621115.3,286047003.8,N
1542621135.1,286047003.2,N
1542621155.9,286047003.2,N
1542621175.7,286047002.9,N
1542621195.5,286047005.6,Y
1542621215.4,286047001.8,P
1542621265.3,286047003.7,E
1542621275.2,286047002.0,N
1542621295.0,286047001.0,P
1542621295.9,286047001.0,N
1542621315.7,286047001.0,N
1542621335.6,286046998.6,Y
1542621355.4,286046999.1,P
1542621375.3,286046999.0,N
1542621395.1,286046998.5,N
1542621415.8,286046997.0,N
1542621435.7,286046999.3,N
1542621455.5,286046999.0,N
1542621475.3,286046996.7,N
1542621495.2,286046996.9,N
1542621515.0,286046999.6,N
1542621515.9,286046999.6,N
1542621535.8,286046999.2,N
1542621555.6,286046999.0,N
1542621575.4,286046999.4,N
1542621595.3,286046998.9,N
